Location: Baix
(44.7118°N, 4.7648°E)
Time: 02:39:33
(UTC+00:00)

Cosmos 2150 Rocket - Pass Details

Date: 07 August 2020
Orbit: 748 x 809 km, 74.0° (Epoch: 27 September)

Event Time Altitude Azimuth Distance (km) Brightness Sun altitude
Exits shadow 03:45:08 - 201° (SSW) 2,742 6.4 -8.5°
Reaches altitude 10° 03:46:22 10° 202° (SSW) 2,263 6.0 -8.3°
Maximum altitude 03:51:30 84° 289° (WNW) 764 4.0 -7.5°
Drops below altitude 10° 03:56:44 10° 20° (NNE) 2,305 7.3 -6.7°
Sets 03:59:08 0° 21° (NNE) 3,244 8.2 -6.4°
